This demonstration page uses our WeatherBlox Daily Observations layout. Learn more.

Left ArrowRight Arrow

Hourly Observations for May 23, 2022

Temp ( °F °C ) Dew Point ( °F °C ) Humidity (%) Winds ( mph kmh ) Pressure ( in mb ) Visibility ( mi km ) Precip ( " mm )
12:59 am 00:59 Mostly Cloudy 78 25.6 68 20 71 71 W 8 13 30.11 1020 10 16 0.00 0.00
1:59 am 01:59 Mostly Cloudy 77 25 69 20.6 77 77 W 7 11 30.11 1020 10 16 0.00 0.00
2:59 am 02:59 Partly Cloudy 75 23.9 67 19.4 76 76 W 8 13 30.09 1019 10 16 0.00 0.00
3:59 am 03:59 Mostly Cloudy 74 23.3 68 20 82 82 W 7 11 30.11 1020 10 16 0.00 0.00
4:59 am 04:59 Mostly Cloudy 74 23.3 69 20.6 85 85 NW 6 9 30.10 1019 10 16 0.00 0.00
5:59 am 05:59 Mostly Cloudy 74 23.3 69 20.6 85 85 NNW 8 13 30.12 1020 10 16 0.00 0.00
6:59 am 06:59 Mostly Cloudy 76 24.4 65 18.3 69 69 N 10 17 30.14 1021 10 16 0.00 0.00
7:59 am 07:59 Mostly Cloudy 76 24.4 65 18.3 69 69 N 12 19 30.16 1021 10 16 0.00 0.00
8:39 am 08:39 Cloudy 74 23.3 63 17.2 69 69 N 9 15 30.17 1022 10 16 0.00 0.00
8:59 am 08:59 Cloudy 74 23.3 63 17.2 69 69 N 12 19 30.17 1022 10 16 0.00 0.00
9:59 am 09:59 Cloudy 74 23.3 64 17.8 71 71 N 17 28 30.18 1022 10 16 0.00 0.00
10:59 am 10:59 Mostly Cloudy 74 23.3 64 17.8 71 71 N 17 28 30.20 1023 10 16 0.00 0.00
11:59 am 11:59 Cloudy 72 22.2 66 18.9 82 82 N 15 24 30.20 1023 10 16 0.00 0.00
12:59 pm 12:59 Cloudy 72 22.2 66 18.9 82 82 NNE 13 20 30.21 1023 10 16 0.00 0.00
1:59 pm 13:59 Cloudy 72 22.2 62 16.7 71 71 E 13 20 30.20 1023 10 16 0.00 0.00
2:59 pm 14:59 Cloudy 72 22.2 61 16.1 68 68 E 9 15 30.21 1023 10 16 0.00 0.00
3:59 pm 15:59 Cloudy 69 20.6 58 14.4 68 68 E 13 20 30.19 1023 10 16 0.00 0.00
4:59 pm 16:59 Cloudy 69 20.6 55 12.8 61 61 E 14 22 30.16 1022 10 16 0.00 0.00
5:43 pm 17:43 Mostly Cloudy 67 19.4 55 12.8 66 66 E 14 22 30.17 1022 10 16 0.00 0.00
5:59 pm 17:59 Mostly Cloudy 67 19.4 55 12.8 66 66 E 14 22 30.18 1022 10 16 0.00 0.00
6:34 pm 18:34 Mostly Cloudy -69 -56 N/A N/A ENE 12 19 30.20 1023 10 16 0.00 0.00
6:59 pm 18:59 Mostly Cloudy 65 18.3 55 12.8 70 70 ESE 9 15 30.20 1023 10 16 0.00 0.00
7:59 pm 19:59 Cloudy 67 19.4 56 13.3 68 68 ENE 9 15 30.21 1023 10 16 0.00 0.00
8:59 pm 20:59 Cloudy with Light Rain 67 19.4 56 13.3 68 68 E 13 20 30.18 1022 6 10 0.00 0.00
9:59 pm 21:59 Cloudy 67 19.4 56 13.3 68 68 ESE 9 15 30.17 1022 10 16 0.00 0.00
10:59 pm 22:59 Cloudy 66 18.9 57 13.9 73 73 SE 5 7 30.19 1022 10 16 0.00 0.00
11:59 pm 23:59 Cloudy 66 18.9 57 13.9 73 73 ESE 3 6 30.19 1022 10 16 0.00 0.00

Powered by AerisWeather